1484989200.29,52537,9.19,74200.0,0.33,-4.61,-4.61,0,*4B
1484989201.51,52538,9.25,74200.0,0.33,-4.69,-4.61,0,*4C
1484989202.7,52539,9.19,74198.3,0.35,-4.57,-4.65,0,*42
1484989203.89,52540,9.19,74202.8,0.35,-4.57,-4.57,0,*4D
1484989205.08,52541,9.19,74200.5,0.35,-4.57,-4.53,0,*48
1484989206.29,52542,9.19,74198.8,0.33,-4.57,-4.57,0,*49
1484989207.5,52543,9.19,74196.0,0.33,-4.61,-4.57,0,*4D
1484989208.71,52544,9.19,74198.5,0.33,-4.61,-4.49,0,*45
1484989209.88,52545,9.19,74200.8,0.35,-4.45,-4.45,0,*48
1484989211.05,52546,9.19,74202.3,0.35,-4.45,-4.45,0,*4B
1484989212.22,52547,9.19,74202.8,0.35,-4.45,-4.45,0,*4A
1484989213.42,52548,9.19,74200.3,0.37,-4.53,-4.45,0,*40
1484989214.6,52549,9.19,74200.0,0.35,-4.53,-4.53,0,*44
1484989215.79,52550,9.19,74202.8,0.35,-4.57,-4.53,0,*48
1484989216.98,52551,9.19,74198.0,0.35,-4.57,-4.65,0,*4C
1484989218.21,52552,9.19,74196.3,0.33,-4.69,-4.61,0,*40
1484989219.4,52553,9.19,74202.0,0.35,-4.65,-4.57,0,*4E
1484989220.58,52554,9.19,74200.5,0.35,-4.57,-4.53,0,*4C
1484989221.82,52555,9.19,74198.0,0.33,-4.57,-4.69,0,*42
1484989223.01,52556,9.19,74200.8,0.35,-4.65,-4.65,0,*4A
1484989224.19,52557,9.19,74198.3,0.35,-4.65,-4.65,0,*4B
1484989225.42,52558,9.19,74200.5,0.35,-4.69,-4.77,0,*4B
1484989226.65,52559,9.19,74202.3,0.35,-4.81,-4.69,0,*43
1484989227.88,52560,9.19,74202.3,0.35,-4.73,-4.81,0,*42
1484989229.11,52561,9.19,74202.8,0.35,-4.81,-4.77,0,*47
1484989230.36,52562,9.19,74200.3,0.37,-4.81,-4.81,0,*4F
1484989231.61,52563,9.19,74196.8,0.37,-4.77,-4.81,0,*47
1484989232.86,52564,9.19,74200.0,0.37,-4.81,-4.77,0,*40
1484989234.08,52565,9.19,74202.0,0.35,-4.77,-4.77,0,*4A
1484989235.29,52566,9.19,74200.3,0.35,-4.65,-4.69,0,*45
1484989236.52,52567,9.19,74198.0,0.37,-4.69,-4.65,0,*46
1484989237.7,52568,9.19,74202.3,0.39,-4.65,-4.61,0,*4F
1484989238.95,52569,9.19,74198.5,0.37,-4.69,-4.69,0,*44
1484989240.13,52570,9.19,74198.5,0.39,-4.61,-4.53,0,*43
1484989241.34,52571,9.19,74200.8,0.37,-4.65,-4.65,0,*4D
1484989242.55,52572,9.19,74196.8,0.37,-4.57,-4.57,0,*4E
1484989243.75,52573,9.19,74198.8,0.37,-4.53,-4.53,0,*4F
1484989244.96,52574,9.19,74198.8,0.37,-4.57,-4.53,0,*4C
1484989246.17,52575,9.19,74204.8,0.37,-4.53,-4.53,0,*49
1484989247.38,52576,9.19,74200.3,0.37,-4.57,-4.57,0,*4A
1484989248.59,52577,9.19,74200.8,0.37,-4.57,-4.53,0,*4F
1484989249.77,52578,9.19,74196.0,0.39,-4.53,-4.53,0,*4A
1484989250.98,52579,9.19,74202.0,0.37,-4.57,-4.57,0,*45
1484989252.19,52580,9.19,74200.0,0.37,-4.57,-4.57,0,*43
1484989253.37,52581,9.19,74202.5,0.39,-4.53,-4.53,0,*4C
1484989254.56,52582,9.19,74200.0,0.39,-4.65,-4.53,0,*4A
1484989255.74,52583,9.19,74200.0,0.39,-4.53,-4.57,0,*4A
1484989256.94,52584,9.19,74202.0,0.37,-4.53,-4.53,0,*47
1484989258.12,52585,9.19,74200.5,0.39,-4.53,-4.61,0,*49
1484989259.3,52586,9.19,74200.0,0.39,-4.49,-4.61,0,*41
1484989260.48,52587,9.19,74200.8,0.39,-4.53,-4.49,0,*41
1484989261.67,52588,9.19,74200.3,0.41,-4.45,-4.45,0,*4A
1484989262.86,52589,9.19,74198.8,0.41,-4.45,-4.49,0,*47
1484989264.05,52590,9.19,74200.0,0.41,-4.45,-4.49,0,*4F
1484989265.23,52591,9.19,74200.8,0.39,-4.41,-4.49,0,*45
1484989266.43,52592,9.19,74200.8,0.41,-4.45,-4.37,0,*44
1484989267.63,52593,9.19,74200.5,0.41,-4.45,-4.37,0,*45
1484989268.82,52594,9.19,74198.0,0.41,-4.37,-4.45,0,*42
1484989270.01,52595,9.19,74202.8,0.41,-4.45,-4.45,0,*46
1484989271.2,52596,9.19,74198.5,0.41,-4.37,-4.45,0,*40
1484989272.41,52597,9.19,74196.8,0.41,-4.33,-4.37,0,*40
1484989273.62,52598,9.19,74200.3,0.41,-4.33,-4.37,0,*4F
1484989274.81,52599,9.19,74200.0,0.41,-4.37,-4.33,0,*4E
1484989276.02,52600,9.19,74200.8,0.41,-4.33,-4.37,0,*4D
1484989277.19,52601,9.19,74200.8,0.43,-4.37,-4.45,0,*4F
1484989278.36,52602,9.19,74202.5,0.43,-4.49,-4.45,0,*45
1484989279.54,52603,9.19,74200.0,0.43,-4.61,-4.57,0,*4D
1484989280.74,52604,9.19,74200.8,0.41,-4.61,-4.61,0,*4D
1484989281.93,52605,9.19,74198.0,0.43,-4.57,-4.57,0,*4E
1484989283.12,52606,9.19,74202.8,0.45,-4.57,-4.53,0,*4F
1484989284.32,52607,9.19,74198.0,0.41,-4.57,-4.49,0,*41
1484989285.5,52608,9.19,74202.8,0.45,-4.53,-4.53,0,*45
1484989286.68,52609,9.19,74200.3,0.45,-4.53,-4.53,0,*44
1484989287.86,52610,9.19,74202.0,0.45,-4.53,-4.53,0,*4C
1484989289.07,52611,9.19,74200.8,0.43,-4.61,-4.69,0,*43
1484989290.31,52612,9.19,74198.3,0.41,-4.69,-4.73,0,*41
1484989291.56,52613,9.19,74200.3,0.41,-4.69,-4.73,0,*40
1484989292.8,52614,9.19,74198.3,0.41,-4.69,-4.73,0,*47
1484989294.02,52615,9.19,74200.8,0.43,-4.69,-4.73,0,*44
1484989295.24,52616,9.19,74200.8,0.43,-4.69,-4.69,0,*4C
1484989296.46,52617,9.19,74196.0,0.43,-4.69,-4.69,0,*4D
1484989297.65,52618,9.19,74200.8,0.45,-4.65,-4.57,0,*45
1484989298.87,52619,9.19,74200.5,0.41,-4.69,-4.61,0,*49
1484989300.07,52620,9.19,74200.0,0.43,-4.69,-4.61,0,*41
1484989301.29,52621,9.19,74198.5,0.43,-4.69,-4.69,0,*48
1484989302.52,52622,9.19,74198.3,0.43,-4.73,-4.69,0,*40
1484989303.74,52623,9.19,74198.3,0.43,-4.73,-4.73,0,*4A
1484989304.99,52624,9.19,74200.3,0.41,-4.73,-4.73,0,*4F
1484989306.17,52625,9.19,74200.5,0.45,-4.65,-4.57,0,*4B
1484989307.36,52626,9.19,74200.3,0.45,-4.65,-4.57,0,*48
1484989308.54,52627,9.19,74202.8,0.45,-4.57,-4.65,0,*49
1484989309.73,52628,9.19,74204.0,0.45,-4.65,-4.57,0,*46
1484989310.95,52629,9.19,74202.0,0.43,-4.69,-4.73,0,*4B
1484989312.16,52630,9.19,74202.8,0.45,-4.53,-4.69,0,*47
1484989313.34,52631,9.19,74196.8,0.45,-4.53,-4.65,0,*4A
1484989314.52,52632,9.19,74196.0,0.45,-4.65,-4.65,0,*4C
1484989315.71,52633,9.19,74198.5,0.45,-4.57,-4.65,0,*4C
1484989316.92,52634,9.19,74202.0,0.45,-4.65,-4.69,0,*46
1484989318.1,52635,9.19,74198.5,0.45,-4.65,-4.57,0,*4A
1484989319.29,52636,9.19,74200.0,0.45,-4.65,-4.65,0,*48
1484989320.47,52637,9.19,74200.3,0.45,-4.65,-4.65,0,*49
1484989321.66,52638,9.19,74202.3,0.45,-4.57,-4.57,0,*46
1484989322.85,52639,9.19,74202.8,0.45,-4.53,-4.53,0,*47
1484989324.02,52640,9.19,74200.8,0.45,-4.45,-4.57,0,*4A
1484989325.24,52641,9.19,74202.3,0.47,-4.57,-4.57,0,*4A
1484989326.42,52642,9.19,74202.3,0.45,-4.53,-4.57,0,*4F
1484989327.63,52643,9.19,74200.0,0.47,-4.57,-4.57,0,*48
1484989328.82,52644,9.19,74200.8,0.45,-4.57,-4.65,0,*4C
1484989330.01,52645,9.19,74200.5,0.45,-4.57,-4.65,0,*4D
1484989331.19,52646,9.19,74202.3,0.45,-4.65,-4.65,0,*4F
1484989332.38,52647,9.19,74202.5,0.45,-4.57,-4.57,0,*4E
1484989333.57,52648,9.19,74200.5,0.45,-4.57,-4.65,0,*40
1484989334.78,52649,9.19,74202.0,0.47,-4.53,-4.57,0,*46
1484989335.98,52650,9.19,74202.3,0.47,-4.53,-4.53,0,*4A
1484989337.17,52651,9.19,74202.0,0.45,-4.57,-4.53,0,*4D
1484989338.36,52652,9.19,74204.0,0.45,-4.57,-4.53,0,*4E
1484989339.57,52653,9.19,74202.8,0.47,-4.57,-4.57,0,*49
1484989340.78,52654,9.19,74202.3,0.47,-4.57,-4.65,0,*4F
1484989341.99,52655,9.19,74196.8,0.47,-4.53,-4.65,0,*4A
1484989343.18,52656,9.19,74200.3,0.45,-4.57,-4.57,0,*4E
1484989344.36,52657,9.19,74202.3,0.45,-4.65,-4.57,0,*4E
1484989345.55,52658,9.19,74202.0,0.45,-4.57,-4.65,0,*41
1484989346.76,52659,9.19,74198.8,0.47,-4.53,-4.57,0,*47
1484989347.97,52660,9.19,74202.0,0.47,-4.57,-4.57,0,*49
1484989349.18,52661,9.19,74200.8,0.47,-4.53,-4.57,0,*4C
1484989350.39,52662,9.19,74200.8,0.47,-4.57,-4.57,0,*4B
1484989351.6,52663,9.19,74202.8,0.47,-4.57,-4.57,0,*4A
1484989352.81,52664,9.19,74200.3,0.47,-4.53,-4.57,0,*49
1484989353.99,52665,9.19,74200.8,0.45,-4.53,-4.65,0,*4B
1484989355.18,52666,9.19,74202.8,0.45,-4.53,-4.57,0,*49
1484989356.38,52667,9.19,74200.3,0.51,-4.53,-4.61,0,*48
1484989357.59,52668,9.19,74202.3,0.47,-4.57,-4.57,0,*41
1484989358.8,52669,9.19,74200.3,0.47,-4.65,-4.65,0,*40
1484989360.03,52670,9.19,74198.8,0.51,-4.73,-4.65,0,*48
1484989361.28,52671,9.19,74198.8,0.51,-4.73,-4.73,0,*4E
1484989362.49,52672,9.19,74200.3,0.51,-4.65,-4.65,0,*4D
1484989363.72,52673,9.19,74202.5,0.47,-4.65,-4.77,0,*48
1484989364.94,52674,9.19,74202.0,0.47,-4.57,-4.65,0,*4D
1484989366.15,52675,9.19,74202.0,0.47,-4.57,-4.57,0,*4D
1484989367.35,52676,9.19,74202.5,0.51,-4.49,-4.49,0,*49
1484989368.55,52677,9.19,74200.5,0.51,-4.49,-4.49,0,*48
1484989369.75,52678,9.19,74196.3,0.51,-4.49,-4.41,0,*4F
1484989370.96,52679,9.19,74202.3,0.51,-4.41,-4.41,0,*46
1484989372.16,52680,9.19,74202.3,0.51,-4.37,-4.49,0,*49
1484989373.36,52681,9.19,74202.5,0.51,-4.41,-4.49,0,*49
1484989374.57,52682,9.19,74202.3,0.51,-4.41,-4.41,0,*42
1484989375.77,52683,9.19,74200.3,0.51,-4.37,-4.41,0,*42
1484989376.97,52684,9.19,74200.0,0.51,-4.49,-4.41,0,*4C
1484989378.18,52685,9.19,74202.3,0.51,-4.49,-4.53,0,*4E
1484989379.38,52686,9.19,74200.0,0.51,-4.49,-4.49,0,*46
1484989380.58,52687,9.19,74202.0,0.51,-4.37,-4.49,0,*4E
1484989381.78,52688,9.19,74200.8,0.51,-4.41,-4.41,0,*48
1484989382.96,52689,9.19,74202.0,0.53,-4.49,-4.41,0,*43
1484989384.16,52690,9.19,74200.8,0.51,-4.41,-4.41,0,*41
1484989385.33,52691,9.19,74202.3,0.53,-4.37,-4.49,0,*4B
1484989386.51,52692,9.19,74202.3,0.53,-4.41,-4.41,0,*41
1484989387.68,52693,9.19,74202.0,0.53,-4.37,-4.41,0,*41
1484989388.86,52694,9.19,74200.3,0.53,-4.41,-4.41,0,*47
1484989390.03,52695,9.19,74204.0,0.53,-4.41,-4.41,0,*46
1484989391.2,52696,9.19,74202.0,0.53,-4.49,-4.49,0,*45
1484989392.37,52697,9.19,74200.3,0.53,-4.49,-4.49,0,*44
1484989393.57,52698,9.19,74202.3,0.51,-4.49,-4.49,0,*49
1484989394.75,52699,9.19,74200.0,0.53,-4.53,-4.49,0,*41
1484989395.92,52700,9.19,74202.5,0.53,-4.53,-4.53,0,*4B
1484989397.1,52701,9.19,74200.8,0.53,-4.49,-4.53,0,*41
1484989398.27,52702,9.19,74202.5,0.53,-4.49,-4.61,0,*43
1484989399.47,52703,9.19,74198.3,0.55,-4.49,-4.57,0,*41
1484989400.65,52704,9.19,74202.3,0.53,-4.41,-4.61,0,*4D
1484989401.85,52705,9.19,74202.0,0.55,-4.49,-4.49,0,*48
1484989403.03,52706,9.19,74200.5,0.53,-4.49,-4.53,0,*46
1484989404.2,52707,9.19,74202.3,0.53,-4.53,-4.53,0,*4C
1484989405.38,52708,9.19,74204.5,0.53,-4.49,-4.53,0,*48
1484989406.55,52709,9.19,74206.5,0.53,-4.41,-4.49,0,*4A
1484989407.73,52710,9.19,74206.5,0.53,-4.41,-4.41,0,*4A
1484989408.9,52711,9.19,74202.3,0.53,-4.41,-4.41,0,*4B
1484989410.08,52712,9.19,74204.8,0.53,-4.41,-4.49,0,*40
1484989411.25,52713,9.19,74200.8,0.53,-4.49,-4.53,0,*42
1484989412.43,52714,9.19,74204.0,0.53,-4.49,-4.53,0,*45
1484989413.6,52715,9.19,74204.5,0.53,-4.49,-4.53,0,*44
1484989414.8,52716,9.19,74200.5,0.55,-4.45,-4.37,0,*4F
1484989415.99,52717,9.19,74202.0,0.55,-4.37,-4.45,0,*4E
1484989417.19,52718,9.19,74206.3,0.55,-4.37,-4.45,0,*41
1484989418.38,52719,9.19,74202.5,0.55,-4.45,-4.49,0,*49
1484989419.56,52720,9.19,74204.0,0.57,-4.49,-4.49,0,*4D
1484989420.79,52721,9.19,74204.5,0.55,-4.57,-4.69,0,*43
1484989422.02,52722,9.19,74202.5,0.55,-4.61,-4.69,0,*45
1484989423.22,52723,9.19,74206.3,0.55,-4.61,-4.61,0,*4C
1484989424.45,52724,9.19,74206.3,0.55,-4.61,-4.69,0,*43
1484989425.63,52725,9.19,74200.8,0.57,-4.57,-4.57,0,*48
1484989426.83,52726,9.19,74204.3,0.55,-4.49,-4.57,0,*46
1484989428.03,52727,9.19,74204.3,0.55,-4.49,-4.49,0,*48
1484989429.24,52728,9.19,74202.0,0.55,-4.49,-4.57,0,*48
1484989430.44,52729,9.19,74200.3,0.55,-4.49,-4.57,0,*49
1484989431.61,52730,9.19,74202.5,0.57,-4.49,-4.49,0,*4C
1484989432.78,52731,9.19,74204.8,0.57,-4.45,-4.49,0,*41
1484989433.97,52732,9.19,74202.8,0.59,-4.45,-4.45,0,*40
1484989435.17,52733,9.19,74204.5,0.59,-4.41,-4.53,0,*42
1484989436.34,52734,9.19,74200.3,0.57,-4.45,-4.49,0,*44
1484989437.53,52735,9.19,74204.8,0.59,-4.45,-4.45,0,*47
1484989438.7,52736,9.19,74206.3,0.57,-4.45,-4.49,0,*46
1484989439.87,52737,9.19,74204.8,0.57,-4.45,-4.49,0,*47
1484989441.04,52738,9.19,74200.5,0.57,-4.49,-4.49,0,*44
1484989442.21,52739,9.13,74202.5,0.57,-4.49,-4.49,0,*45
1484989443.38,52740,9.13,74200.0,0.57,-4.49,-4.49,0,*4B
1484989444.55,52741,9.19,74206.5,0.57,-4.49,-4.49,0,*4A
1484989445.72,52742,9.19,74206.8,0.57,-4.45,-4.49,0,*45
1484989446.92,52743,9.19,74206.0,0.59,-4.33,-4.45,0,*47
1484989448.12,52744,9.19,74204.5,0.59,-4.33,-4.45,0,*40
1484989449.33,52745,9.19,74206.5,0.59,-4.33,-4.45,0,*41
1484989450.52,52746,9.13,74202.0,0.59,-4.45,-4.41,0,*47
1484989451.73,52747,9.19,74204.5,0.59,-4.57,-4.53,0,*46
1484989452.96,52748,9.19,74202.3,0.59,-4.57,-4.69,0,*40
1484989454.21,52749,9.19,74202.8,0.59,-4.81,-4.89,0,*44
1484989455.41,52750,9.19,74202.0,0.57,-4.99,-5.11,0,*4B
1484989456.64,52751,9.13,74200.5,0.57,-5.07,-5.15,0,*48
1484989457.87,52752,9.19,74202.8,0.57,-5.07,-5.11,0,*4F
1484989459.08,52753,9.13,74202.8,0.57,-4.99,-5.07,0,*4F
1484989460.29,52754,9.19,74204.0,0.57,-4.85,-4.93,0,*49
1484989461.54,52755,9.19,74204.0,0.55,-4.85,-4.85,0,*4D
1484989462.77,52756,9.19,74200.8,0.57,-4.81,-4.85,0,*48
1484989464.01,52757,9.13,74202.3,0.59,-4.77,-4.81,0,*4A
1484989465.24,52758,9.13,74200.0,0.57,-4.81,-4.85,0,*46
1484989466.46,52759,9.19,74204.3,0.61,-4.73,-4.77,0,*42
1484989467.7,52760,9.19,74206.5,0.59,-4.77,-4.77,0,*47
1484989468.92,52761,9.13,74202.3,0.57,-4.69,-4.73,0,*43
1484989470.14,52762,9.13,74204.5,0.57,-4.73,-4.73,0,*4B
1484989471.36,52763,9.19,74206.0,0.57,-4.69,-4.69,0,*4A
1484989472.54,52764,9.19,74204.3,0.57,-4.61,-4.61,0,*4D
1484989473.72,52765,9.19,74204.5,0.57,-4.61,-4.61,0,*4C
1484989474.9,52766,9.19,74206.0,0.57,-4.57,-4.61,0,*4A
1484989476.13,52767,9.19,74204.3,0.55,-4.57,-4.69,0,*41
1484989477.33,52768,9.19,74206.8,0.57,-4.61,-4.69,0,*49
1484989478.55,52769,9.19,74206.5,0.57,-4.69,-4.69,0,*40
1484989479.77,52770,9.19,74204.8,0.57,-4.69,-4.69,0,*48
1484989480.97,52771,9.19,74204.3,0.57,-4.61,-4.69,0,*41
1484989482.15,52772,9.13,74202.5,0.57,-4.57,-4.61,0,*4F
1484989483.36,52773,9.19,74206.3,0.59,-4.53,-4.57,0,*41
1484989484.56,52774,9.19,74206.5,0.59,-4.53,-4.57,0,*46
1484989485.76,52775,9.19,74204.5,0.59,-4.53,-4.57,0,*47
1484989486.97,52776,9.19,74204.3,0.59,-4.57,-4.57,0,*40
1484989488.17,52777,9.13,74204.3,0.59,-4.45,-4.53,0,*46
1484989489.37,52778,9.13,74204.0,0.59,-4.41,-4.45,0,*4A
1484989490.56,52779,9.13,74200.5,0.59,-4.45,-4.45,0,*4F
1484989491.75,52780,9.19,74206.3,0.59,-4.53,-4.45,0,*4E
1484989492.95,52781,9.19,74204.5,0.59,-4.45,-4.53,0,*4F
1484989494.15,52782,9.19,74204.0,0.59,-4.45,-4.53,0,*4C
1484989495.35,52783,9.13,74204.3,0.59,-4.45,-4.53,0,*4D
1484989496.53,52784,9.13,74204.5,0.61,-4.41,-4.49,0,*4E
1484989497.72,52785,9.13,74206.0,0.59,-4.45,-4.45,0,*4C
1484989498.89,52786,9.13,74204.0,0.61,-4.41,-4.49,0,*4C
1484989500.07,52787,9.13,74206.8,0.61,-4.41,-4.49,0,*4D
1484989501.27,52788,9.13,74204.5,0.59,-4.41,-4.45,0,*45
1484989502.47,52789,9.13,74202.8,0.59,-4.45,-4.53,0,*47
1484989503.65,52790,9.19,74204.5,0.61,-4.41,-4.49,0,*4B
1484989504.82,52791,9.13,74202.3,0.61,-4.41,-4.49,0,*4A
1484989506.0,52792,9.19,74206.8,0.61,-4.41,-4.49,0,*49
1484989507.18,52793,9.13,74206.3,0.61,-4.41,-4.41,0,*40
1484989508.36,52794,9.13,74204.3,0.61,-4.41,-4.49,0,*4F
1484989509.53,52795,9.13,74206.5,0.61,-4.37,-4.41,0,*47
1484989510.71,52796,9.13,74204.3,0.61,-4.37,-4.41,0,*44
1484989511.88,52797,9.13,74204.5,0.61,-4.37,-4.41,0,*45
1484989513.08,52798,9.13,74206.8,0.63,-4.41,-4.49,0,*41
1484989514.28,52799,9.19,74204.8,0.63,-4.49,-4.49,0,*48
1484989515.48,52800,9.19,74206.0,0.63,-4.53,-4.53,0,*47
1484989516.69,52801,9.19,74210.0,0.63,-4.53,-4.61,0,*47
1484989517.89,52802,9.13,74204.0,0.63,-4.53,-4.57,0,*41
1484989519.09,52803,9.13,74206.3,0.63,-4.53,-4.61,0,*45
1484989520.34,52804,9.13,74204.3,0.63,-4.77,-4.77,0,*43
1484989521.58,52805,9.13,74202.5,0.63,-4.77,-4.85,0,*4F
1484989522.83,52806,9.13,74208.0,0.63,-4.77,-4.85,0,*4C
1484989524.08,52807,9.13,74200.8,0.63,-4.73,-4.77,0,*44
1484989525.31,52808,9.13,74208.3,0.63,-4.65,-4.73,0,*48
1484989526.51,52809,9.19,74206.8,0.63,-4.61,-4.65,0,*4A
1484989527.69,52810,9.19,74208.3,0.65,-4.57,-4.61,0,*45
1484989528.9,52811,9.13,74204.8,0.63,-4.61,-4.65,0,*43
1484989530.07,52812,9.19,74206.0,0.65,-4.49,-4.61,0,*48
1484989531.27,52813,9.13,74206.3,0.63,-4.53,-4.65,0,*40
1484989532.48,52814,9.13,74206.5,0.63,-4.53,-4.61,0,*43
1484989533.68,52815,9.13,74206.0,0.63,-4.49,-4.53,0,*48
1484989534.85,52816,9.13,74202.8,0.65,-4.37,-4.49,0,*4F
1484989536.02,52817,9.13,74206.0,0.65,-4.49,-4.53,0,*4C
1484989537.23,52818,9.13,74206.3,0.63,-4.49,-4.53,0,*45
1484989538.43,52819,9.13,74206.5,0.63,-4.41,-4.49,0,*47
1484989539.6,52820,9.13,74204.3,0.65,-4.37,-4.45,0,*46
1484989540.77,52821,9.13,74204.5,0.65,-4.37,-4.49,0,*4B
1484989541.94,52822,9.13,74204.8,0.65,-4.45,-4.53,0,*46
1484989543.14,52823,9.13,74202.5,0.63,-4.49,-4.61,0,*4C
1484989544.34,52824,9.13,74202.8,0.63,-4.49,-4.53,0,*4A
1484989545.51,52825,9.13,74204.3,0.65,-4.45,-4.49,0,*4A
1484989546.68,52826,9.13,74204.5,0.65,-4.45,-4.49,0,*49
1484989547.88,52827,9.13,74206.5,0.63,-4.49,-4.53,0,*49
1484989549.06,52828,9.13,74206.8,0.69,-4.33,-4.41,0,*42
1484989550.23,52829,9.13,74204.0,0.65,-4.37,-4.45,0,*4F
1484989551.4,52830,9.13,74206.5,0.65,-4.37,-4.45,0,*47
1484989552.57,52831,9.13,74206.3,0.65,-4.37,-4.45,0,*46
1484989553.77,52832,9.13,74202.5,0.67,-4.37,-4.49,0,*4B
1484989554.96,52833,9.13,74206.3,0.67,-4.37,-4.45,0,*46
1484989556.15,52834,9.13,74202.5,0.69,-4.33,-4.41,0,*4F
1484989557.33,52835,9.13,74202.8,0.69,-4.29,-4.41,0,*45
1484989558.53,52836,9.13,74204.3,0.67,-4.37,-4.37,0,*46
1484989559.71,52837,9.13,74206.8,0.69,-4.29,-4.33,0,*42
1484989560.91,52838,9.13,74204.8,0.67,-4.33,-4.45,0,*49
1484989562.08,52839,9.13,74206.8,0.65,-4.37,-4.45,0,*4E
1484989563.28,52840,9.13,74204.3,0.67,-4.37,-4.49,0,*4E
1484989564.49,52841,9.13,74204.3,0.67,-4.49,-4.57,0,*49
1484989565.69,52842,9.13,74204.5,0.67,-4.45,-4.57,0,*46
1484989566.86,52843,9.13,74200.5,0.69,-4.45,-4.53,0,*4D
1484989568.07,52844,9.19,74206.8,0.67,-4.49,-4.57,0,*4C
1484989569.24,52845,9.13,74204.8,0.69,-4.45,-4.57,0,*4F
1484989570.44,52846,9.13,74204.5,0.67,-4.45,-4.49,0,*4D
1484989571.61,52847,9.13,74208.0,0.69,-4.45,-4.45,0,*4E
1484989572.81,52848,9.13,74206.0,0.67,-4.49,-4.49,0,*4F
1484989574.0,52849,9.13,74204.8,0.67,-4.45,-4.45,0,*4E
1484989575.18,52850,9.13,74206.3,0.69,-4.41,-4.45,0,*4C
1484989576.38,52851,9.13,74204.3,0.67,-4.37,-4.49,0,*4E
1484989577.57,52852,9.13,74204.5,0.67,-4.37,-4.45,0,*41
1484989578.76,52853,9.13,74202.8,0.69,-4.33,-4.41,0,*4E
1484989579.94,52854,9.13,74206.0,0.69,-4.29,-4.41,0,*42
1484989581.11,52855,9.13,74206.0,0.69,-4.29,-4.33,0,*46
1484989582.3,52856,9.13,74202.3,0.69,-4.21,-4.29,0,*46
1484989583.48,52857,9.13,74200.8,0.69,-4.29,-4.29,0,*4F
1484989584.67,52858,9.13,74206.8,0.69,-4.21,-4.29,0,*48
1484989585.86,52859,9.13,74208.5,0.69,-4.21,-4.33,0,*42
1484989587.04,52860,9.13,74208.5,0.69,-4.21,-4.33,0,*48
1484989588.22,52861,9.13,74204.0,0.69,-4.29,-4.33,0,*41
1484989589.4,52862,9.13,74204.5,0.69,-4.29,-4.41,0,*47
1484989590.58,52863,9.13,74204.5,0.69,-4.33,-4.33,0,*48
1484989591.77,52864,9.13,74206.0,0.77,-4.21,-4.33,0,*43
1484989592.97,52865,9.13,74206.5,0.77,-4.21,-4.33,0,*42
1484989594.16,52866,9.13,74204.3,0.77,-4.29,-4.41,0,*4C
1484989595.33,52867,9.13,74206.5,0.73,-4.29,-4.41,0,*49
1484989596.51,52868,9.13,74206.5,0.73,-4.29,-4.37,0,*47
1484989597.7,52869,9.13,74208.0,0.73,-4.25,-4.37,0,*4A
1484989598.89,52870,9.13,74204.0,0.77,-4.29,-4.37,0,*4A
1484989600.07,52871,9.13,74206.8,0.73,-4.25,-4.37,0,*43
1484989601.27,52872,9.13,74202.5,0.77,-4.21,-4.25,0,*43
1484989602.45,52873,9.13,74206.3,0.77,-4.13,-4.33,0,*44
1484989603.65,52874,9.13,74208.0,0.77,-4.21,-4.25,0,*45
1484989604.83,52875,9.13,74204.3,0.73,-4.17,-4.29,0,*49
1484989606.02,52876,9.13,74208.8,0.77,-4.13,-4.33,0,*41
1484989607.21,52877,9.13,74206.8,0.77,-4.25,-4.33,0,*45
1484989608.4,52878,9.13,74206.0,0.77,-4.25,-4.33,0,*4A
1484989609.58,52879,9.13,74206.5,0.73,-4.29,-4.37,0,*47
1484989610.77,52880,9.13,74210.5,0.77,-4.25,-4.37,0,*49
1484989611.96,52881,9.13,74208.5,0.77,-4.25,-4.45,0,*4D
1484989613.17,52882,9.13,74204.3,0.79,-4.37,-4.37,0,*46
1484989614.36,52883,9.13,74206.0,0.77,-4.25,-4.45,0,*4F
1484989615.56,52884,9.13,74204.3,0.77,-4.25,-4.37,0,*4D
1484989616.75,52885,9.13,74206.3,0.77,-4.25,-4.41,0,*4D
1484989617.94,52886,9.13,74206.5,0.77,-4.33,-4.37,0,*48
1484989619.14,52887,9.13,74206.8,0.77,-4.25,-4.37,0,*4E
1484989620.34,52888,9.13,74206.0,0.77,-4.21,-4.37,0,*45
1484989621.55,52889,9.13,74206.3,0.79,-4.25,-4.45,0,*4B
1484989622.77,52890,9.13,74204.0,0.79,-4.33,-4.45,0,*44
1484989623.97,52891,9.13,74206.3,0.79,-4.37,-4.45,0,*41
1484989625.18,52892,9.13,74208.8,0.79,-4.45,-4.49,0,*4B
1484989626.39,52893,9.13,74204.3,0.79,-4.45,-4.57,0,*45
1484989627.6,52894,9.13,74206.0,0.79,-4.45,-4.57,0,*42
1484989628.81,52895,9.13,74208.0,0.79,-4.45,-4.49,0,*4C
1484989630.02,52896,9.13,74200.8,0.79,-4.45,-4.49,0,*4F
1484989631.23,52897,9.13,74204.8,0.79,-4.37,-4.49,0,*4B
1484989632.42,52898,9.13,74206.5,0.81,-4.29,-4.41,0,*44
1484989633.63,52899,9.13,74204.8,0.79,-4.37,-4.45,0,*49
1484989634.84,52900,9.13,74204.8,0.79,-4.37,-4.45,0,*48
1484989636.04,52901,9.13,74204.5,0.79,-4.45,-4.45,0,*4C
1484989637.23,52902,9.13,74200.8,0.81,-4.41,-4.45,0,*4C
1484989638.44,52903,9.13,74206.3,0.79,-4.49,-4.53,0,*45
1484989639.63,52904,9.13,74204.8,0.81,-4.45,-4.65,0,*4C
1484989640.84,52905,9.13,74202.3,0.79,-4.49,-4.57,0,*47
1484989642.05,52906,9.13,74200.5,0.79,-4.45,-4.57,0,*48
1484989643.27,52907,9.13,74202.5,0.79,-4.49,-4.57,0,*45
1484989644.45,52908,9.13,74200.5,0.81,-4.45,-4.57,0,*41
1484989645.69,52909,9.13,74202.0,0.79,-4.61,-4.73,0,*47
1484989646.95,52910,9.13,74200.3,0.79,-4.73,-4.73,0,*4C
1484989648.19,52911,9.13,74198.3,0.79,-4.61,-4.81,0,*43
1484989649.45,52912,9.13,74206.3,0.79,-4.69,-4.81,0,*48
1484989650.71,52913,9.13,74200.8,0.79,-4.69,-4.73,0,*44
1484989651.95,52914,9.13,74206.5,0.79,-4.61,-4.73,0,*4B
1484989653.21,52915,9.13,74200.8,0.79,-4.69,-4.73,0,*42
1484989654.46,52916,9.13,74200.8,0.79,-4.69,-4.73,0,*41
1484989655.7,52917,9.13,74204.8,0.77,-4.69,-4.81,0,*43
1484989656.93,52918,9.13,74202.3,0.77,-4.69,-4.81,0,*4C
1484989658.17,52919,9.13,74204.0,0.77,-4.73,-4.81,0,*46
1484989659.43,52920,9.13,74202.5,0.79,-4.69,-4.89,0,*41
1484989660.69,52921,9.13,74200.0,0.79,-4.81,-4.89,0,*46
1484989661.93,52922,9.13,74202.3,0.77,-4.81,-4.89,0,*4B
1484989663.16,52923,9.13,74200.5,0.77,-4.69,-4.81,0,*44
1484989664.39,52924,9.13,74200.3,0.77,-4.69,-4.81,0,*43
1484989665.59,52925,9.13,74200.8,0.73,-4.61,-4.73,0,*43
1484989666.83,52926,9.13,74204.5,0.79,-4.61,-4.69,0,*41
1484989668.07,52927,9.13,74202.3,0.79,-4.61,-4.81,0,*46
1484989669.29,52928,9.13,74204.3,0.77,-4.61,-4.69,0,*41
1484989670.5,52929,9.13,74200.5,0.77,-4.61,-4.69,0,*40
1484989671.72,52930,9.13,74204.0,0.77,-4.57,-4.69,0,*4D
1484989672.91,52931,9.13,74204.0,0.77,-4.61,-4.61,0,*41
1484989674.13,52932,9.13,74206.5,0.77,-4.57,-4.69,0,*4F
1484989675.35,52933,9.13,74206.3,0.77,-4.57,-4.69,0,*4E
1484989676.58,52934,9.13,74206.0,0.77,-4.73,-4.69,0,*4F
1484989677.82,52935,9.13,74204.5,0.77,-4.73,-4.81,0,*48
1484989679.08,52936,9.13,74204.0,0.79,-4.73,-4.85,0,*41
1484989680.32,52937,9.13,74198.3,0.77,-4.73,-4.85,0,*4E
1484989681.55,52938,9.13,74200.3,0.77,-4.69,-4.85,0,*4A
1484989682.78,52939,9.13,74204.0,0.77,-4.69,-4.73,0,*42
1484989684.01,52940,9.13,74204.0,0.77,-4.69,-4.81,0,*41
1484989685.23,52941,9.13,74202.8,0.77,-4.57,-4.69,0,*4B
1484989686.43,52942,9.13,74206.0,0.73,-4.53,-4.77,0,*47
1484989687.62,52943,9.13,74202.3,0.77,-4.57,-4.61,0,*41
1484989688.83,52944,9.13,74200.5,0.77,-4.49,-4.69,0,*41
1484989690.04,52945,9.13,74206.3,0.77,-4.49,-4.69,0,*40
1484989691.22,52946,9.13,74206.0,0.77,-4.45,-4.57,0,*42
1484989692.41,52947,9.13,74206.3,0.77,-4.49,-4.57,0,*4F
1484989693.62,52948,9.13,74204.3,0.77,-4.49,-4.69,0,*4D
1484989694.82,52949,9.13,74204.8,0.77,-4.57,-4.61,0,*4B
1484989696.01,52950,9.13,74204.3,0.77,-4.61,-4.61,0,*46
1484989697.24,52951,9.13,74206.5,0.77,-4.69,-4.81,0,*41
1484989698.46,52952,9.13,74202.3,0.73,-4.73,-4.93,0,*4E
1484989699.69,52953,9.13,74204.0,0.77,-4.85,-4.89,0,*49
1484989700.93,52954,9.13,74202.5,0.77,-4.81,-4.89,0,*4A
1484989702.17,52955,9.13,74204.3,0.77,-4.81,-4.89,0,*4B
1484989703.4,52956,9.13,74200.8,0.77,-4.81,-4.89,0,*48
1484989704.64,52957,9.13,74206.0,0.77,-4.73,-4.89,0,*44
1484989705.87,52958,9.13,74206.0,0.77,-4.69,-4.81,0,*48
1484989707.1,52959,9.13,74204.5,0.73,-4.73,-4.85,0,*42
1484989708.3,52960,9.13,74202.5,0.73,-4.61,-4.85,0,*4B
1484989709.51,52961,9.13,74204.3,0.77,-4.61,-4.73,0,*47
1484989710.73,52962,9.13,74204.5,0.77,-4.57,-4.69,0,*4A
1484989711.95,52963,9.13,74204.8,0.77,-4.57,-4.69,0,*4B
1484989713.13,52964,9.13,74204.0,0.77,-4.45,-4.61,0,*47
1484989714.31,52965,9.13,74206.0,0.77,-4.45,-4.61,0,*46